Weather History for KGLD - July, 2013

Change the Weather History Date:

Wednesday, July 31, 2013

  Actual Average Record
Temperature  
Mean Temperature 78 °F 76 °F  
Max Temperature 93 °F 89 °F 105 °F (2002)
Min Temperature 63 °F 62 °F 43 °F (1925)
Degree Days  
Heating Degree Days 0 0  
Month to date heating degree days 7 0  
Since 1 June heating degree days 38 41  
Since 1 July heating degree days 7 4  
Cooling Degree Days 13 11  
Month to date cooling degree days 324 334  
Year to date cooling degree days 670 554  
Since 1 June cooling degree days 581 513  
Growing Degree Days 28 (Base 50)    
Moisture  
Dew Point 62 °F    
Average Humidity 63    
Maximum Humidity 93    
Minimum Humidity 32    
Precipitation  
Precipitation T in 0.11 in 2.17 in (1939)
Month to date precipitation 0.45 3.47  
Year to date precipitation 7.85 13.20  
Snow  
Snow 0.00 in 0.00 in - ()
Month to date snowfall 0.0 0.0  
Since 1 June snowfall 0.0 0.0  
Since 1 July snowfall 0.0 0.0  
Snow Depth 0.00 in    
Sea Level Pressure  
Sea Level Pressure 30.11 in    
Wind  
Wind Speed 11 mph (SSE)    
Max Wind Speed 28 mph    
Max Gust Speed 35 mph    
Visibility 9 miles    
Events      
T = Trace of Precipitation, MM = Missing Value Source: NWS Daily Summary

Daily Weather History Graph

Daily Weather History Graph

Search for Another Location

Airport or City:

Trip Planner

Search our weather history database for the weather conditions in past years. The results will help you decide how hot, cold, wet, or windy it might be!

Date:

Astronomy

Jul. 31, 2013 Rise Set
Actual Time 5:46 AM MDT 7:59 PM MDT
Civil Twilight 5:15 AM MDT 8:29 PM MDT
Nautical Twilight 4:39 AM MDT 9:06 PM MDT
Astronomical Twilight 3:58 AM MDT 9:46 PM MDT
Moon 12:42 AM MDT (7/31) 3:17 PM MDT (7/31)
Length of Visible Light 15h 13m
Length of Day
14h 13m
Waning Crescent, 31% of the Moon is Illuminated
Jul 31
Waning Crescent
Aug 6
New
Aug 14
First Quarter
Aug 20
Full
Aug 28
Last Quarter

Hourly Weather History & Observations

Time (MDT) Temp. Heat Index Dew Point Humidity Pressure Visibility Wind Dir Wind Speed Gust Speed Precip Events Conditions
1:53 AM 64.0 °F - 61.0 °F 90% 30.10 in 10.0 mi SE 3.5 mph - N/A   Partly Cloudy
2:53 AM 64.9 °F - 62.1 °F 90% 30.12 in 9.0 mi ENE 11.5 mph - N/A   Clear
3:53 AM 64.9 °F - 63.0 °F 93% 30.10 in 9.0 mi SE 10.4 mph - N/A   Clear
4:53 AM 64.9 °F - 63.0 °F 93% 30.11 in 8.0 mi SE 10.4 mph - N/A   Clear
5:53 AM 64.0 °F - 62.1 °F 93% 30.13 in 7.0 mi SE 6.9 mph - N/A   Clear
6:53 AM 66.0 °F - 63.0 °F 90% 30.13 in 7.0 mi South 11.5 mph - N/A   Scattered Clouds
7:11 AM 66.2 °F - 64.4 °F 94% 30.25 in 7.0 mi South 12.7 mph - N/A   Scattered Clouds
7:13 AM 66.2 °F - 64.4 °F 94% 30.25 in 7.0 mi South 15.0 mph - N/A   Mostly Cloudy
7:53 AM 68.0 °F - 64.0 °F 87% 30.14 in 7.0 mi South 15.0 mph - N/A   Overcast
8:13 AM 69.8 °F - 64.4 °F 83% 30.25 in 10.0 mi South 15.0 mph - N/A   Scattered Clouds
8:53 AM 72.0 °F - 64.0 °F 76% 30.13 in 10.0 mi SSW 13.8 mph - N/A   Clear
9:53 AM 77.0 °F - 64.9 °F 66% 30.13 in 10.0 mi SW 9.2 mph - N/A   Clear
10:53 AM 82.9 °F 84.6 °F 64.9 °F 54% 30.12 in 10.0 mi NW 6.9 mph - N/A   Clear
11:53 AM 86.0 °F 86.1 °F 61.0 °F 43% 30.09 in 10.0 mi WSW 4.6 mph - N/A   Clear
12:53 PM 89.1 °F 88.8 °F 60.1 °F 38% 30.08 in 10.0 mi NNW 8.1 mph - N/A   Clear
1:53 PM 91.9 °F 92.5 °F 62.1 °F 37% 30.06 in 10.0 mi ENE 10.4 mph 16.1 mph N/A   Partly Cloudy
2:53 PM 91.9 °F 92.5 °F 62.1 °F 37% 30.02 in 10.0 mi ENE 12.7 mph 18.4 mph N/A   Clear
3:53 PM 93.0 °F 92.3 °F 59.0 °F 32% 30.01 in 10.0 mi ENE 10.4 mph 17.3 mph N/A   Partly Cloudy
4:53 PM 88.0 °F 90.7 °F 66.9 °F 49% 30.03 in 10.0 mi ESE 18.4 mph - N/A   Partly Cloudy
5:53 PM 80.1 °F 81.2 °F 62.1 °F 54% 30.06 in 10.0 mi SE 19.6 mph 31.1 mph N/A   Overcast
6:53 PM 78.1 °F - 60.1 °F 54% 30.07 in 10.0 mi SSE 20.7 mph 29.9 mph N/A   Scattered Clouds
7:53 PM 73.0 °F - 55.9 °F 55% 30.09 in 10.0 mi SSE 9.2 mph - N/A   Clear
8:53 PM 71.1 °F - 60.1 °F 68% 30.09 in 10.0 mi South 10.4 mph - N/A   Scattered Clouds
9:53 PM 68.0 °F - 57.9 °F 70% 30.09 in 10.0 mi SSE 4.6 mph - N/A   Clear
10:53 PM 66.9 °F - 59.0 °F 76% 30.09 in 10.0 mi South 11.5 mph - N/A   Clear
11:53 PM 66.9 °F - 59.0 °F 76% 30.12 in 10.0 mi West 8.1 mph - N/A   Clear